LEGION 1 (59625 NORAD) Tracking and Keplerian Element Data

This shows tracking and keplerian element data for the satellite.

Feedback or suggestion? Click here.




ElementValue
Catalog59625
NameLEGION 1
Epoch Orbit547
Epoch Day159.91843955
Epoch Year2024
RAAN231.0029
Inclination97.5765
Eccentricity0.0004546
Argument of Perigee62.5012
Mean Anonmoly297.6683
Mean Motion15.16605472
Decay Rate0.00011124
L11 59625U 24081A 24159.91843955 .00011124 00000+0 57225-3 0 9999
L22 59625 97.5765 231.0029 0004546 62.5012 297.6683 15.16605472 5474



Live tracking and technical data element details for LEGION 1 (NORAD 59625). LEGION 1 can be tracked NOW for your location showing map with azimuth and elevation plus other details from your city location.







IsCatalogInMostPopularTable: catalog: 59625, numindb: 14
Update: records affected: 1



GetName: 59625 LEGION 1

Hit Count: updated at: Fri, 14 Jun 2024 17:52:18 GMT